ギャラッド彗星

296P/Garradd (2007)

English version
Home page
Updated on July 8, 2020

---------------------------------------------------------------------

・ プロフィール

符号 296P/2007 H3
発見日 2007年4月22日
発見光度 17.4等
発見者 G. J. Garradd (Siding Spring)

・ 軌道要素

Epoch 2007 Aug. 8.0 TT = JDT 2454320.5
T 2007 Aug. 15.33083 TT                                 MPC
q   1.8292688            (2000.0)            P               Q
n   0.15043264     Peri.  350.14956     -0.26267165     +0.86701667
a   3.5013969      Node   263.65744     -0.85374429     -0.41331218
e   0.4775603      Incl.   25.21582     -0.44958236     +0.27830765
P   6.55
From 80 observations 2001 June 30-2014 Jan. 7, mean residual 0".6.

・ 星図

・ 光度変化

        m1 = 12.5 + 5 logΔ + 15.0 log r

---------------------------------------------------------------------

軌道要素はM.P.E.C. 2014-A49に掲載されたものです。
星図は StellaNavigator Ver.2.0 for Windows (アストロアーツ 編著 / アスキー出版局刊) で作成したものです。
光度グラフはComet for Windowsで作成したものです。

---------------------------------------------------------------------

Copyright(C) Seiichi Yoshida (comet@aerith.net). All rights reserved.